sat.trackr.live / text

‹ back to catalog

STARLINK-33612

NORAD 63325 · 2025-057U

PAYLOAD ACTIVE UNKNOWN

§ Identity

Operator
Country
US
Launch date
2025-03-18
Launch site
AFETR
Launch vehicle
Mass (kg)
RCS (m²)

Purposes: comms

External: N2YO · Heavens-Above · Gunter

§ Orbital elements

Epoch: 2026-05-25T04:31:47.305344Z

Period
94.27 min
Inclination
43.0031°
Eccentricity
0.0001651
Mean motion
15.27587897 rev/d
Perigee alt
481.9 km
Apogee alt
484.2 km
Semi-major
6,861.2 km
B*
6.1106e-4
RAAN
319.1102°
Arg perigee
269.4434°
Mean anomaly
90.6228°
Rev number
6,747

§ Raw data

STARLINK-336121 63325U 25057U   26145.18874196  .00016595  00000+0  61106-3 0  99922 63325  43.0031 319.1102 0001651 269.4434  90.6228 15.27587897 67474

JSON: /api/v1/satellites/63325 · /tle

For live sub-satellite position, see the globe view (requires WebGL).

§ Visibility from observer

Set your observer location to see the next 7 days of passes ≥ 10°. The values pass through the URL so the page stays shareable.

No JS? Fill the form by hand. The geolocation button needs JavaScript.